EHI
0 0 0 0 0 0 0 0 0 0 0 0 0 0 0 0 0 0 0 0 0 0 0 0 0 0 0 0 0 0 0 0 0 0 0 0 0 0 0 0 0 0 0
0 0 0 0 0 0 0 0 0 0 0 0 0 0 0 0 0 0 0 0 0 0 0 0 0 0 0 0 0 0 0 0 0 0 0 0 0 0 0 0 0 0 0
0 0 0 0 0 0 0 0 0 0 0 0 0 0 0 0 0 0 0 0 0 0 0 0 0 0 0 0 0 0 0 0 0 0 0 0 0 0 0 0 0 0 0
0 0 0 0 0 0 0 0 0 0 0 0 0 0 0 0 0 0 0 0 0 0 0 0 0 0 0 0 0 0 0 0 0 0 0 0 0 0 0 0 0 0 0
0 0 0 0 0 0 0 0 0 0 0 0 0 0 0 0 0 0 0 0 0 0 0 0 0 0 0 0 0 0 0 0 0 0 0 0 0 0 0 0 0 0 0
0 0 0 0 0 0 0 0 0 0 0 0 0 0 0 0 0 0 0 0 0 0 0 0 0 0 0 0 0 0 0 0 0 0 0 0 0 0 0 0 0 0 0
0 0 0 0 0 0 0 0 0 0 0 0 0 0 0 0 0 0 0 0 0 0 0 0 0 0 0 0 0 0 0 0 0 0 0 0 0 0 0 0 0 0 0
0 0 0 0 0 0 0 0 0 0 0 0 0 0 0 0 0 0 0 0 0 0 0 0 0 0 0 0 0 0 0 0 0 0 0 0 0 0 0 0 0 0 0
0 0 0 0 0 0 0 0 0 0 0 0 0 0 0 0 0 0 0 0 0 0 0 0 0 0 0 0 0 0 0 0 0 0 0 0 0 0 0 0 0 0 0
0 0 0 0 0 0 0 0 0 0 0 0 0 0 0 0 0 0 0 0 0 0 0 0 0 0 0 0 0 0 0 0 0 0 0 0 0 0 0 0 0 0 0
0 0 0 0 0 0 0 0 0 0 0 0 0 0 0 0 0 0 0 0 0 0 0 0 0 0 0 0 0 0 0 0 0 0 0 0 0 0 0 0 0 0 0
0 0 0 0 0 0 0 0 0 0 0 0 0 0 0 0 0 0 0 0 0 0 0 0 0 0 0 0 0 0 0 0 0 0 0 0 0 0 0 0 0 0 0
0 0 0 0 0 0 0 0 0 0 0 0 0 0 0 0 0 0 0 0 0 0 0 0 0 0 0 0 0 0 0 0 0 0 0 0 0 0 0 0 0 0 0
0 0 0 0 0 0 0 0 0 0 0 0 0 0 0 0 0 0 0 0 0 0 0 0 0 0 0 0 0 0 0 0 0 0 0 0 0 0 0 0 0 0 0
0 0 0 0 0 0 0 0 0 0 0 0 0 0 0 0 0 0 0 0 0 0 0 0 0 0 0 0 0 0 0 0 0 0 0 0 0 0 0 0 0 0 0
0 0 0 0 0 0 0 0 0 0 0 0 0 0 0 0 0 0 0 0 0 0 0 0 0 0 0 0 0 0 0 0 0 0 0 0 0 0 0 0 0 0 0
0 0 0 0 0 0 0 0 0 0 0 0 0 0 0 0 0 0 0 0 0 0 0 0 0 0 0 0 0 0 0 0 0 0 0 0 0 0 0 0 0 0 0
0 0 0 0 0 0 0 0 0 0 0 0 0 0 0 0 0 0 0 0 0 0 0 0 0 0 0 0 0 0 0 0 0 0 0 0 0 0 0 0 0 0 0
0 0 0 0 0 0 0 0 0 0 0 0 0 0 0 0 0 0 0 0 0 0 0 0 0 0 0 0 0 0 0 0 0 0 0 0 0 0 0 0 0 0 0
0 0 0 0 0 0 0 0 0 0 0 0 0 0 0 0 0 0 0 0 0 0 0 0 0 0 0 0 0 0 0 0 0 0 0 0 0 0 0 0 0 0 0
0 0 0 0 0 0 0 0 0 0 0 0 0 0 0 0 0 0 0 0 0 0 0 0 0 0 0 0 0 0 0 0 0 0 0 0 0 0 0 0 0 0 0
0 0 0 0 0 0 0 0 0 0 0 0 0 0 0 0 0 0 0 0 0 0 0 0 0 0 0 0 0 0 0 0 0 0 0 0 0 0 0 0 0 0 0
0 0 0 0 0 0 0 0 0 0 0 0 0 0 0 0 0 0 0 0 0 0 0 0 0 0 0 0 0 0 0 0 0 0 0 0 0 0 0 0 0 0 0
0 0 0 0 0 0 0 0 0 0 0 0 0 0 0 0 0 0 0 0 0 0 0 0 0 0 0 0 0 0 0 0 0 0 0 0 0 0 0 0 0 0 0
0 0 0 0 0 0 0 0 0 0 0 0 0 0 0 0 0 0 0 0 0 0 0 0 0 0 0 0 0 0 0 0 0 0 0 0 0 0 0 0 0 0 0
0 0 0 0 0 0 0 0 0 0 0 0 0 0 0 0 0 0 0 0 0 0 0 0 0 0 0 0 0 0 0 0 0 0 0 0 0 0 0 0 0 0 0
Wind_Speed
4 4 3 3 2 2 2 2 1 1 0 0 0 1 1 2 2 2 2 4 5 5 5 4 4 3 3 3 2 2 2 2 2 2 2 2 1 1 0 0 1 2 2
5 4 4 3 3 3 2 2 2 1 0 0 1 1 2 2 3 3 2 3 5 6 6 6 5 5 4 4 3 3 3 3 3 4 4 4 4 4 3 2 1 1 0
6 5 4 4 3 3 3 2 1 1 1 1 1 2 2 2 2 3 3 2 3 4 6 7 7 5 4 4 4 3 4 4 5 5 5 5 6 6 5 5 4 3 2
6 5 4 4 4 3 3 2 2 1 1 1 1 2 1 1 2 3 2 2 2 2 3 5 5 5 4 4 3 3 3 3 4 5 6 6 6 6 7 7 7 6 5
7 5 5 4 4 3 3 3 2 2 2 1 2 2 1 1 2 2 2 2 2 1 1 2 2 2 2 2 3 3 3 3 3 4 5 6 7 8 8 8 8 8 8
8 6 4 4 4 4 3 3 3 2 2 1 1 1 1 2 1 1 2 1 1 1 1 1 0 1 1 1 2 4 4 4 3 3 4 5 6 8 9 8 8 8 8
8 7 5 5 5 5 5 4 3 2 2 1 1 1 2 1 1 1 1 1 1 1 1 1 0 0 1 2 2 3 4 3 3 4 4 5 5 6 7 8 8 8 8
7 7 6 5 5 4 4 4 3 2 2 2 2 0 2 3 2 2 1 1 1 1 2 2 2 1 1 1 3 4 3 3 3 4 4 5 6 6 7 7 7 7 8
7 7 7 6 5 5 5 5 4 4 3 2 2 3 2 2 2 1 2 2 2 2 1 2 2 2 2 1 1 3 4 3 4 4 4 5 6 6 6 6 6 5 5
7 7 7 7 6 5 5 5 4 3 4 3 2 2 2 2 1 2 1 1 2 2 2 2 2 2 2 1 2 3 4 4 3 4 5 5 6 7 6 6 5 5 4
6 6 6 6 6 5 5 5 5 4 3 3 3 2 2 1 2 2 3 2 0 0 1 1 1 1 2 2 2 3 4 4 4 5 6 6 7 7 8 7 6 5 3
4 5 5 5 5 4 5 5 5 4 3 3 2 2 2 2 2 3 4 3 2 1 0 0 1 1 1 2 3 4 5 5 5 5 7 8 7 8 8 7 6 6 5
4 6 5 5 5 5 5 4 4 4 4 3 3 2 2 2 1 1 2 2 2 1 1 1 0 1 1 1 2 4 5 6 6 6 7 8 8 8 8 8 7 7 7
5 6 6 5 5 5 4 4 3 3 3 3 2 2 1 1 1 2 2 1 2 2 2 3 1 1 1 1 2 4 3 6 7 8 8 8 9 9 8 8 8 8 9
4 6 5 5 5 5 5 4 3 3 3 2 2 2 1 1 1 1 1 2 2 3 3 3 2 1 1 1 3 2 3 6 7 8 8 9 9 10 9 10 10 10 10
5 6 6 5 5 4 5 4 4 3 3 2 2 2 1 1 1 1 1 1 2 3 3 1 1 1 2 2 3 3 3 6 6 7 7 8 9 9 10 10 10 11 11
6 6 6 6 6 5 5 4 4 4 4 2 2 2 1 1 0 0 1 1 2 2 3 1 1 1 2 2 2 3 3 3 3 6 7 8 8 8 9 9 10 10 10
6 6 6 6 6 5 4 5 4 4 4 3 2 2 1 1 0 0 1 1 1 2 2 2 2 2 2 2 3 3 2 3 3 6 7 7 8 8 8 8 9 9 9
7 6 6 6 6 5 5 4 4 4 3 3 2 2 1 1 1 1 1 1 1 1 1 1 2 1 1 2 2 2 2 2 3 4 6 6 7 7 7 7 7 8 8
7 6 6 6 5 5 5 4 4 4 3 3 2 2 1 1 1 1 1 1 1 1 1 1 2 1 1 2 2 2 1 1 1 2 4 5 6 7 7 6 6 6 6
6 6 6 6 5 4 4 5 4 4 4 3 2 2 1 1 1 2 1 1 1 1 1 1 1 1 2 2 3 2 2 1 1 1 1 2 2 3 4 5 5 5 5
6 6 6 6 5 3 6 7 5 4 4 3 2 1 1 1 1 2 2 1 1 2 2 2 2 2 3 3 2 3 3 2 2 0 1 1 1 1 1 2 2 3 3
6 6 5 5 5 4 6 6 6 5 3 3 2 2 1 1 3 2 3 4 4 3 0 2 3 3 3 4 5 3 3 2 2 1 1 1 1 1 0 2 2 2 3
5 5 5 5 4 3 5 5 6 5 3 2 2 2 2 2 1 2 2 3 3 4 3 1 1 2 2 3 4 4 4 4 3 1 1 1 1 0 1 1 3 2 3
4 4 4 5 4 3 4 5 6 4 3 2 2 2 3 2 3 4 3 2 2 3 4 5 4 3 3 6 6 5 4 3 2 1 0 2 1 0 0 0 2 3 1
4 4 4 3 4 3 4 5 7 3 3 2 1 2 4 4 5 4 4 3 2 0 1 3 4 6 5 4 4 3 4 3 2 2 2 2 1 1 0 0 1 1 2
Wind_Direction
161 159 157 154 152 146 148 147 140 128 81 36 184 206 243 250 249 245 265 271 268 265 262 260 258 253 245 236 227 214 212 220 218 219 222 224 227 237 281 30 40 46 54
167 167 168 171 173 170 167 165 170 169 205 268 276 254 245 245 245 244 244 265 267 267 268 266 267 265 255 247 244 232 226 226 233 237 237 236 235 237 238 237 246 266 302
174 173 175 183 186 176 169 162 167 159 211 240 266 264 249 246 251 253 250 247 261 266 265 265 266 267 265 264 260 246 233 234 235 239 242 243 243 242 241 240 240 237 235
179 175 180 191 184 170 167 169 168 172 209 229 258 273 271 273 273 266 260 253 249 256 266 268 271 274 276 280 284 277 261 250 245 246 247 247 250 252 250 246 240 235 232
183 180 187 187 170 166 171 174 167 173 194 223 245 267 279 274 277 281 273 266 254 247 243 275 282 290 294 291 305 314 317 313 281 266 267 260 258 257 256 250 244 237 231
186 184 186 181 169 168 174 174 176 178 186 201 240 286 283 271 272 275 277 284 280 262 251 259 323 358 359 327 317 321 329 337 347 326 300 287 282 272 260 256 249 241 236
189 187 188 179 177 183 186 176 166 174 187 156 127 321 312 294 306 315 326 337 354 4 44 50 86 80 15 20 2 336 329 331 338 338 335 320 304 298 285 272 259 250 244
189 191 189 186 181 181 180 176 167 163 174 162 154 162 321 330 359 24 36 45 30 42 49 47 64 66 62 46 27 18 356 340 339 341 343 337 322 310 299 290 279 265 254
193 189 186 183 183 182 186 184 178 177 184 186 179 172 191 255 304 328 38 45 40 46 35 40 50 52 60 52 28 16 11 1 353 350 345 337 336 329 322 317 311 302 282
192 190 185 183 182 181 181 182 181 181 174 189 195 208 205 185 219 296 310 45 50 45 32 38 35 37 47 42 32 25 25 22 16 8 359 359 360 358 353 349 342 328 318
188 189 186 182 183 182 181 176 173 179 179 181 182 175 192 210 209 226 271 270 288 72 42 36 44 40 40 41 29 29 40 37 33 27 18 15 15 12 7 4 9 354 344
181 186 183 181 180 179 180 176 172 172 180 181 180 176 175 192 205 211 244 249 249 215 118 48 59 57 49 44 41 41 44 42 36 33 32 35 26 19 16 19 25 26 37
185 190 182 179 176 173 169 160 160 166 174 178 181 188 197 207 189 209 242 254 244 218 194 209 174 108 88 68 49 48 53 55 49 47 45 44 38 33 29 34 36 39 44
185 175 173 169 167 158 153 154 155 158 153 160 162 167 185 205 193 200 215 231 257 239 220 220 141 106 87 77 72 64 57 65 64 61 57 52 50 46 43 44 48 51 55
152 152 155 153 151 146 141 141 136 137 136 138 150 162 178 197 199 212 215 213 229 252 245 199 177 136 131 109 96 79 70 75 73 72 69 65 60 56 54 54 58 60 61
145 147 147 144 139 134 132 132 129 131 128 125 137 150 164 184 194 206 231 241 236 243 253 163 166 155 153 134 113 87 77 81 77 80 79 74 69 64 61 60 64 64 62
146 148 146 140 137 135 134 132 132 133 132 132 137 147 158 161 188 235 237 229 234 235 246 181 124 127 141 144 111 87 74 62 61 78 83 80 77 73 71 68 66 65 63
141 139 135 132 132 133 132 134 138 137 140 147 148 144 152 133 181 270 262 255 248 241 230 210 159 147 150 151 124 107 82 70 60 73 82 85 85 80 77 73 70 69 67
133 131 132 134 133 132 128 129 132 133 136 138 139 148 154 146 237 272 270 265 258 258 224 174 160 137 132 133 116 94 82 55 58 65 77 79 85 85 81 76 75 74 73
129 127 125 127 128 126 127 128 125 124 118 109 112 127 150 175 216 238 249 254 248 237 194 157 150 145 135 124 130 140 128 70 51 45 65 66 73 73 71 73 79 78 77
124 125 122 117 116 119 128 129 125 127 123 112 98 94 110 156 202 206 209 224 210 205 186 173 166 153 162 162 180 159 149 116 64 45 65 46 50 50 42 43 63 80 83
120 120 121 124 122 122 136 137 136 129 131 135 134 121 106 93 76 65 60 74 170 193 200 185 189 200 198 184 149 148 137 144 193 175 114 82 66 79 38 12 41 79 96
124 121 123 126 125 130 137 137 136 130 136 148 155 151 128 100 84 70 55 48 35 24 215 186 201 210 194 184 161 153 158 157 166 154 127 132 69 117 21 346 7 102 114
131 131 134 132 127 137 142 140 134 125 134 145 155 162 158 147 147 129 99 68 39 20 18 46 208 219 203 174 164 155 142 114 88 54 102 145 151 161 21 345 354 106 126
131 134 137 143 145 155 160 158 142 129 136 147 159 170 173 178 195 165 132 114 61 13 33 70 82 100 131 144 138 119 126 122 137 169 121 138 144 113 14 337 355 26 93
143 142 142 152 159 170 181 178 159 142 151 164 172 193 207 205 210 194 160 156 166 228 45 55 55 55 58 85 116 128 144 136 141 187 180 139 131 113 94 328 354 4 21